User: anonymous   Login
Location: Bay Ridge
(40.6340°N, 74.0146°W)
Time: 08:02:30
(UTC+00:00)
Language:

Cosmos 2227 Rocket - Orbit

View from above orbital plane
View from above orbital plane
View from above satellite
View from above satellite

Ground track
Ground track

The orbit data is extracted from the following two-line orbital elements,

1 22285U 92093B   20026.15267277  .00000014  00000-0  31588-4 0  9993
2 22285  71.0215  13.1437 0002511 141.6219 218.5083 14.15036098397349
Epoch (UTC): 26 January 2020 03:39:50
Eccentricity: 0.0002511
inclination: 71.0215°
perigee height: 840 km
apogee height: 844 km
right ascension of ascending node: 13.1437°
argument of perigee: 141.6219°
revolutions per day: 14.15036098
mean anomaly at epoch: 218.5083°
orbit number at epoch: 39734

The dashed part of the orbit path shows where the satellite is in the earth's shadow,  

DLR